When you browse on this site, cookies collect data to enhance your experience and personalize the content and advertising you see.
Visit our Privacy Policy to learn more. By continuing to use the site, you agree to this use of cookies and data.
  • In France
  • List of Countries
  • For 7 days
  • Water Temperature
  • Weather Map
  • Weather Widgets
  • user-avatar
    Login

    Hourly Weather Saarbrucken

    Today, 16 September, Monday

    Time Temperature Precipitation Wind Pressure Humidity
    00:00 +13°C° 0 mm 0 mps 744 mmHg 73%
    01:00 +13°C° 0 mm 0 mps 744 mmHg 74%
    02:00 +13°C° 0 mm 0 mps 743 mmHg 75%
    03:00 +12°C° 0 mm 0 mps 743 mmHg 76%
    04:00 +12°C° 0 mm 0 mps 743 mmHg 74%
    05:00 +13°C° 0 mm 0 mps 743 mmHg 73%
    06:00 +13°C° 0 mm 0 mps 743 mmHg 72%
    07:00 +18°C° 0 mm 1 mps 743 mmHg 64%
    08:00 +20°C° 0 mm 1 mps 743 mmHg 57%
    09:00 +22°C° 0 mm 1 mps 743 mmHg 50%
    10:00 +24°C° 0 mm 1 mps 743 mmHg 44%
    11:00 +25°C° 0 mm 2 mps 743 mmHg 39%
    12:00 +26°C° 0 mm 3 mps 743 mmHg 33%
    13:00 +26°C° 0 mm 3 mps 743 mmHg 35%
    14:00 +26°C° 0 mm 3 mps 742 mmHg 36%
    15:00 +26°C° 0 mm 3 mps 742 mmHg 38%
    16:00 +24°C° 0 mm 3 mps 742 mmHg 44%
    17:00 +23°C° 0 mm 2 mps 742 mmHg 51%
    18:00 +20°C° 0 mm 2 mps 742 mmHg 58%
    19:00 +19°C° 0 mm 2 mps 742 mmHg 64%
    20:00 +19°C° 0 mm 1 mps 742 mmHg 69%
    21:00 +19°C° 0 mm 1 mps 742 mmHg 74%
    22:00 +18°C° 0 mm 1 mps 742 mmHg 77%
    23:00 +18°C° 0 mm 1 mps 742 mmHg 80%

    Tomorrow, 17 September, Tuesday

    Time Temperature Precipitation Wind Pressure Humidity
    00:00 +18°C° 0 mm 1 mps 743 mmHg 83%
    01:00 +18°C° 0 mm 1 mps 742 mmHg 84%
    02:00 +16°C° 0 mm 1 mps 742 mmHg 86%
    03:00 +16°C° 0 mm 1 mps 742 mmHg 88%
    04:00 +16°C° 0 mm 2 mps 742 mmHg 89%
    05:00 +15°C° 0 mm 2 mps 743 mmHg 90%
    06:00 +14°C° 0 mm 2 mps 743 mmHg 91%
    07:00 +15°C° 0 mm 2 mps 743 mmHg 83%
    08:00 +16°C° 0 mm 2 mps 743 mmHg 76%
    09:00 +17°C° 0 mm 2 mps 743 mmHg 68%
    10:00 +19°C° 0 mm 2 mps 743 mmHg 60%
    11:00 +20°C° 0 mm 2 mps 743 mmHg 52%
    12:00 +21°C° 0 mm 2 mps 743 mmHg 44%
    13:00 +21°C° 0 mm 3 mps 743 mmHg 42%
    14:00 +21°C° 0 mm 3 mps 743 mmHg 41%
    15:00 +21°C° 0 mm 3 mps 743 mmHg 39%
    16:00 +19°C° 0 mm 3 mps 743 mmHg 48%
    17:00 +17°C° 0 mm 3 mps 743 mmHg 56%
    18:00 +14°C° 0 mm 3 mps 743 mmHg 64%
    19:00 +13°C° 0 mm 3 mps 744 mmHg 69%
    20:00 +11°C° 0 mm 3 mps 744 mmHg 73%
    21:00 +10°C° 0 mm 3 mps 745 mmHg 77%
    22:00 +9°C° 0 mm 3 mps 745 mmHg 79%
    23:00 +8°C° 0 mm 3 mps 745 mmHg 81%

    Day after tomorrow, 18 September, Wednesday

    Time Temperature Precipitation Wind Pressure Humidity
    00:00 +8°C° 0 mm 3 mps 746 mmHg 83%
    01:00 +7°C° 0 mm 3 mps 746 mmHg 82%
    02:00 +7°C° 0 mm 3 mps 746 mmHg 82%
    03:00 +7°C° 0 mm 3 mps 746 mmHg 82%
    04:00 +5°C° 0 mm 3 mps 746 mmHg 81%
    05:00 +5°C° 0 mm 3 mps 746 mmHg 80%
    06:00 +5°C° 0 mm 3 mps 747 mmHg 80%
    07:00 +8°C° 0 mm 4 mps 747 mmHg 71%
    08:00 +11°C° 0 mm 4 mps 747 mmHg 62%
    09:00 +13°C° 0 mm 5 mps 747 mmHg 53%
    10:00 +14°C° 0 mm 5 mps 747 mmHg 49%
    11:00 +15°C° 0 mm 5 mps 747 mmHg 46%
    12:00 +17°C° 0 mm 4 mps 746 mmHg 42%
    13:00 +17°C° 0 mm 4 mps 746 mmHg 41%
    14:00 +18°C° 0 mm 4 mps 746 mmHg 40%
    15:00 +18°C° 0 mm 4 mps 746 mmHg 39%
    16:00 +16°C° 0 mm 3 mps 746 mmHg 45%
    17:00 +13°C° 0 mm 3 mps 746 mmHg 50%
    18:00 +12°C° 0 mm 2 mps 746 mmHg 56%
    19:00 +10°C° 0 mm 2 mps 746 mmHg 61%
    20:00 +9°C° 0 mm 2 mps 747 mmHg 66%
    21:00 +8°C° 0 mm 3 mps 747 mmHg 71%
    22:00 +8°C° 0 mm 3 mps 747 mmHg 72%
    23:00 +8°C° 0 mm 3 mps 747 mmHg 74%

    19 September, Thursday

    Time Temperature Precipitation Wind Pressure Humidity
    00:00 +8°C° 0 mm 3 mps 747 mmHg 75%
    01:00 +7°C° 0 mm 3 mps 747 mmHg 78%
    02:00 +7°C° 0 mm 3 mps 747 mmHg 82%
    03:00 +6°C° 0 mm 2 mps 747 mmHg 85%
    04:00 +7°C° 0 mm 2 mps 748 mmHg 85%
    05:00 +7°C° 0 mm 3 mps 748 mmHg 85%
    06:00 +7°C° 0 mm 3 mps 748 mmHg 86%
    07:00 +9°C° 0 mm 3 mps 748 mmHg 76%
    08:00 +11°C° 0 mm 4 mps 749 mmHg 66%
    09:00 +13°C° 0 mm 4 mps 749 mmHg 57%
    10:00 +14°C° 0 mm 4 mps 749 mmHg 54%
    11:00 +15°C° 0 mm 4 mps 749 mmHg 52%
    12:00 +17°C° 0 mm 4 mps 749 mmHg 49%
    13:00 +17°C° 0 mm 4 mps 748 mmHg 48%
    14:00 +17°C° 0 mm 4 mps 748 mmHg 46%
    15:00 +17°C° 0 mm 4 mps 748 mmHg 44%
    16:00 +14°C° 0 mm 3 mps 748 mmHg 49%
    17:00 +12°C° 0 mm 3 mps 748 mmHg 54%
    18:00 +10°C° 0 mm 2 mps 748 mmHg 59%
    19:00 +10°C° 0 mm 2 mps 748 mmHg 62%
    20:00 +9°C° 0 mm 2 mps 749 mmHg 66%
    21:00 +8°C° 0 mm 2 mps 749 mmHg 69%
    22:00 +8°C° 0 mm 2 mps 749 mmHg 70%
    23:00 +7°C° 0 mm 2 mps 749 mmHg 72%

    20 September, Friday

    Time Temperature Precipitation Wind Pressure Humidity
    00:00 +7°C° 0 mm 2 mps 749 mmHg 73%
    01:00 +7°C° 0 mm 3 mps 749 mmHg 73%
    02:00 +7°C° 0 mm 3 mps 748 mmHg 73%
    03:00 +7°C° 0 mm 3 mps 748 mmHg 73%
    04:00 +7°C° 0 mm 3 mps 748 mmHg 72%
    05:00 +7°C° 0 mm 3 mps 748 mmHg 72%
    06:00 +7°C° 0 mm 3 mps 748 mmHg 72%
    07:00 +8°C° 0 mm 4 mps 748 mmHg 64%
    08:00 +10°C° 0 mm 5 mps 748 mmHg 56%
    09:00 +13°C° 0 mm 5 mps 749 mmHg 48%
    10:00 +15°C° 0 mm 5 mps 748 mmHg 44%
    11:00 +16°C° 0 mm 5 mps 748 mmHg 41%
    12:00 +17°C° 0 mm 5 mps 748 mmHg 38%
    13:00 +17°C° 0 mm 5 mps 747 mmHg 38%
    14:00 +17°C° 0 mm 5 mps 747 mmHg 39%
    15:00 +19°C° 0 mm 5 mps 746 mmHg 39%
    16:00 +16°C° 0 mm 5 mps 746 mmHg 44%
    17:00 +14°C° 0 mm 4 mps 746 mmHg 50%
    18:00 +12°C° 0 mm 4 mps 746 mmHg 55%
    19:00 +12°C° 0 mm 4 mps 746 mmHg 56%
    20:00 +12°C° 0 mm 4 mps 746 mmHg 56%
    21:00 +11°C° 0 mm 4 mps 747 mmHg 57%
    22:00 +11°C° 0 mm 4 mps 746 mmHg 59%
    23:00 +10°C° 0 mm 4 mps 746 mmHg 60%

    21 September, Saturday

    Time Temperature Precipitation Wind Pressure Humidity
    00:00 +10°C° 0 mm 4 mps 746 mmHg 62%
    01:00 +10°C° 0 mm 4 mps 746 mmHg 63%
    02:00 +8°C° 0 mm 4 mps 745 mmHg 64%
    03:00 +8°C° 0 mm 4 mps 745 mmHg 64%
    04:00 +8°C° 0 mm 4 mps 745 mmHg 66%
    05:00 +8°C° 0 mm 4 mps 745 mmHg 67%
    06:00 +7°C° 0 mm 4 mps 745 mmHg 68%
    07:00 +11°C° 0 mm 4 mps 745 mmHg 61%
    08:00 +13°C° 0 mm 5 mps 745 mmHg 54%
    09:00 +15°C° 0 mm 5 mps 745 mmHg 47%
    10:00 +16°C° 0 mm 5 mps 745 mmHg 44%
    11:00 +19°C° 0 mm 5 mps 745 mmHg 41%
    12:00 +21°C° 0 mm 5 mps 744 mmHg 38%
    13:00 +21°C° 0 mm 4 mps 744 mmHg 38%
    14:00 +21°C° 0 mm 4 mps 743 mmHg 39%
    15:00 +22°C° 0 mm 4 mps 743 mmHg 40%
    16:00 +20°C° 0 mm 4 mps 743 mmHg 46%
    17:00 +18°C° 0 mm 3 mps 743 mmHg 53%
    18:00 +16°C° 0 mm 3 mps 743 mmHg 60%
    19:00 +14°C° 0 mm 3 mps 743 mmHg 65%
    20:00 +13°C° 0 mm 3 mps 743 mmHg 69%
    21:00 +13°C° 0 mm 2 mps 743 mmHg 73%
    22:00 +13°C° 0 mm 2 mps 743 mmHg 76%
    23:00 +13°C° 0 mm 2 mps 743 mmHg 79%
    Show more